Temperature
21 18 18 18 19 20 20 19 19 19 20 19 18 18 17 18 18 17 17 18 18 18 18 18 18 18 17 17 17 17 16 16 16 16 16 15 15 15 15 15 15 15 15 14
18 18 20 20 20 20 20 19 19 20 20 20 18 18 17 17 17 18 17 17 18 18 18 18 17 17 17 17 17 17 16 16 16 16 16 15 15 15 15 14 14 14 14 14
19 20 21 21 20 20 20 20 19 20 20 19 18 17 17 17 18 18 18 18 18 18 17 17 17 17 17 17 17 16 16 16 16 16 15 15 15 15 14 14 14 14 14 14
19 20 21 21 20 20 19 20 20 20 18 17 18 16 17 16 16 16 17 17 17 17 17 17 17 17 17 16 16 16 16 16 16 15 15 15 15 15 14 14 14 14 14 14
19 20 20 20 21 21 20 21 20 20 18 17 17 16 16 16 16 16 16 16 17 17 17 17 17 17 16 16 16 16 16 16 15 15 15 15 15 14 14 14 14 14 14 14
19 20 21 21 21 21 20 19 18 16 16 17 17 16 15 15 16 16 16 16 16 17 17 17 16 16 16 16 16 16 16 15 15 15 15 15 14 14 14 14 14 13 13 13
19 20 20 21 20 20 19 16 16 16 15 16 17 16 15 16 16 16 16 16 17 17 16 16 16 16 16 16 16 15 15 15 15 15 15 14 14 14 14 14 13 13 13 13
18 18 20 20 20 19 18 17 16 16 15 16 16 16 16 17 17 17 17 17 17 16 16 16 16 16 16 16 15 15 15 15 14 14 14 14 14 14 13 13 13 13 13 13
17 17 20 20 21 19 18 17 17 15 16 16 15 16 16 17 16 16 16 16 16 16 16 16 16 16 15 15 15 15 15 15 14 14 14 14 14 13 13 13 13 13 13 12
18 18 18 20 20 20 19 17 15 15 16 15 15 15 15 16 16 16 15 15 16 16 16 16 16 15 15 15 15 15 14 14 14 14 14 13 13 13 13 12 12 12 12 12
18 17 17 18 19 19 18 18 16 14 15 15 15 15 16 16 16 15 15 15 16 16 16 16 16 15 15 15 15 14 14 14 14 13 13 13 13 13 12 12 12 12 12 11
17 15 15 17 18 19 18 18 16 15 15 14 14 14 16 15 15 15 15 15 15 15 16 15 15 15 15 14 14 14 14 13 13 13 13 13 12 12 12 12 12 11 11 11
16 15 15 16 16 17 18 18 16 15 14 13 14 14 15 15 15 15 15 15 15 15 15 15 15 14 14 14 14 13 13 13 13 13 12 12 12 12 12 11 11 11 11 10
16 14 15 16 16 16 17 17 17 15 14 14 14 14 15 14 14 14 15 15 15 14 14 14 14 14 14 13 13 13 13 13 12 12 12 12 12 12 11 11 11 10 10 10
15 15 15 15 16 17 17 17 17 16 15 14 15 15 14 14 14 14 14 14 14 13 13 13 13 13 13 13 13 12 12 12 12 12 12 12 11 11 11 11 10 10 10 10
14 15 15 16 17 16 16 16 16 16 16 15 15 14 14 14 14 13 13 13 13 13 13 13 13 13 13 12 12 12 12 12 11 11 11 11 11 11 10 10 10 10 10 9
13 14 14 14 15 16 15 15 16 15 15 15 14 14 13 12 12 12 13 13 12 12 12 12 12 12 12 12 12 12 12 11 11 11 11 11 11 10 10 10 10 9 9 9
13 13 12 13 14 15 15 15 15 15 14 14 14 13 13 13 13 13 13 13 12 12 12 12 12 12 12 11 11 11 11 11 11 11 11 10 10 10 10 9 9 9 9 9
13 13 12 12 13 13 14 15 15 14 13 13 13 12 12 12 12 12 12 13 12 12 12 12 12 12 11 11 11 11 11 10 10 10 10 10 10 10 9 9 9 9 9 8
13 12 12 12 13 13 14 15 15 14 13 13 12 12 12 12 10 10 12 12 12 12 12 11 11 11 11 11 11 10 10 10 10 10 10 10 10 9 9 9 9 8 8 8
13 12 12 11 12 12 13 14 15 13 13 13 13 12 12 11 11 12 12 12 12 12 11 11 11 11 11 10 10 10 10 10 10 10 10 10 9 9 9 9 8 8 8 7
12 11 11 11 11 12 13 13 12 12 13 13 12 12 12 12 12 12 11 11 11 11 11 11 11 10 10 10 10 10 10 10 9 9 9 9 9 9 8 8 8 7 7 7
11 11 10 11 11 12 13 13 14 13 13 12 12 12 12 11 11 11 11 11 10 10 10 10 10 10 10 10 10 10 9 9 9 9 9 9 8 8 8 8 7 7 7 6
11 11 10 10 11 11 12 13 13 13 13 13 12 12 12 11 11 11 11 10 10 10 10 10 10 9 9 9 9 9 9 9 9 8 8 8 8 8 7 7 7 7 6 6
11 11 10 10 10 11 12 12 13 13 12 12 12 11 11 11 11 10 10 10 10 9 9 9 9 9 9 9 9 9 9 8 8 8 8 8 7 7 7 7 6 6 6 6
9 10 10 10 10 10 11 12 12 12 12 12 11 11 11 10 10 10 10 9 9 9 9 9 9 9 8 8 8 8 8 8 8 8 7 7 7 7 6 6 6 6 6 5
Wind_Speed
1 3 3 7 8 6 5 3 4 5 4 4 5 5 6 6 6 6 7 7 7 7 6 7 7 7 7 6 7 7 7 6 5 4 4 3 2 1 2 3 5 6 6 7
3 4 8 6 5 3 3 3 2 3 2 3 3 3 4 6 7 9 10 9 9 7 5 6 6 6 6 7 7 7 7 7 5 4 4 3 3 2 1 2 4 6 7 6
5 6 3 3 2 2 2 4 4 3 1 1 2 2 3 4 2 3 6 8 8 10 10 8 7 6 6 6 7 7 6 6 5 5 4 4 3 3 2 2 2 3 5 6
3 4 1 2 2 3 4 4 4 2 2 2 3 2 6 4 3 4 4 6 7 7 7 7 7 6 7 6 5 6 6 6 5 5 5 6 4 3 2 2 1 2 4 4
4 3 2 3 5 3 4 3 2 2 2 1 1 3 6 2 4 5 5 6 7 8 9 9 8 7 7 6 6 6 6 5 4 5 5 6 4 3 2 2 2 2 2 3
5 4 4 5 4 3 1 3 5 4 3 2 4 4 5 4 7 6 6 6 7 8 9 8 7 6 6 6 6 6 7 5 5 5 5 4 5 4 4 2 2 1 1 1
4 4 3 2 0 2 4 5 3 4 3 4 2 2 5 6 5 7 8 7 8 8 9 9 7 6 7 7 7 6 7 5 4 5 5 4 4 5 4 3 3 2 1 1
1 5 4 2 4 4 3 7 6 4 4 4 2 3 4 4 2 3 6 7 7 8 8 9 9 8 7 8 8 7 6 5 5 5 4 4 4 3 2 3 3 3 2 2
3 5 4 3 2 5 3 3 7 6 2 1 2 3 4 2 1 2 5 6 7 8 8 9 8 8 7 7 7 8 7 6 5 5 4 4 4 4 3 2 2 2 1 2
4 3 5 4 1 1 5 5 5 4 2 2 3 3 4 4 3 2 4 5 6 6 6 7 7 7 6 6 6 6 7 6 5 4 4 4 3 4 3 3 2 1 1 1
2 3 4 2 3 5 2 2 4 4 4 4 3 5 4 6 6 5 5 5 5 6 6 6 6 6 5 5 6 6 5 5 4 4 4 4 3 3 4 3 2 2 1 1
1 3 3 6 6 4 5 5 6 4 3 4 3 5 4 4 4 5 4 4 4 5 6 6 5 5 4 4 4 5 4 4 4 5 4 4 4 4 4 3 2 2 2 2
2 4 1 5 5 3 1 3 5 5 4 4 4 5 3 1 2 3 4 4 4 4 4 4 4 4 4 3 3 4 4 4 4 4 4 4 4 4 4 3 2 2 2 2
3 3 5 7 6 3 4 4 3 5 4 4 6 6 2 1 2 2 3 3 3 3 3 4 3 3 3 3 3 3 3 3 4 4 5 4 4 4 4 3 3 2 3 3
3 3 4 6 6 3 4 5 4 5 7 7 6 6 6 6 5 4 3 3 4 3 3 3 3 2 3 3 3 3 4 4 4 5 5 5 4 4 3 2 2 2 2 3
2 2 1 4 3 1 3 4 4 4 4 6 5 4 3 3 2 2 2 4 4 3 4 3 2 1 2 3 4 4 4 4 4 5 5 4 4 3 3 2 2 2 2 2
1 3 1 4 4 2 4 4 4 2 2 4 6 6 3 3 3 3 3 4 4 3 3 3 3 3 3 3 4 5 5 4 4 4 4 4 4 4 3 3 2 3 2 2
4 3 3 1 1 4 5 1 2 3 0 0 2 3 5 6 5 4 3 5 4 3 3 3 3 3 2 2 3 3 4 4 4 4 3 4 4 4 3 3 3 3 2 2
5 5 3 2 2 4 4 2 2 3 2 1 2 2 3 3 3 1 1 3 5 5 4 4 4 4 3 2 3 3 4 3 3 3 4 4 4 4 4 4 3 3 2 2
3 4 4 3 3 5 5 4 2 3 2 2 3 3 3 3 1 3 2 1 2 3 3 3 3 3 3 3 3 4 4 3 3 3 3 3 4 5 5 4 3 2 2 2
1 1 3 3 4 5 5 4 2 2 5 2 3 3 3 3 4 3 1 0 1 1 2 3 3 3 3 3 4 4 4 3 3 2 2 2 3 4 4 3 3 3 2 2
3 2 3 3 3 6 3 2 3 5 2 2 2 3 3 2 2 2 2 1 1 1 1 2 3 2 2 3 5 4 3 3 2 2 1 2 2 3 2 3 2 2 3 2
4 5 4 5 5 4 2 3 3 3 3 2 3 2 3 3 2 2 1 1 1 1 1 2 3 2 2 3 4 4 3 2 2 2 1 2 2 2 3 3 3 2 2 2
3 1 2 1 3 2 1 0 1 3 3 3 3 3 3 2 2 2 1 0 0 0 1 1 3 3 2 2 3 3 3 3 3 3 2 2 3 2 2 2 2 3 3 3
4 0 1 2 2 1 2 2 1 1 2 3 3 3 3 3 2 2 1 1 1 0 1 2 3 3 2 2 2 2 3 4 3 2 2 2 2 2 2 1 1 2 3 4
3 3 4 5 5 4 5 4 2 1 2 3 3 2 2 3 3 2 2 1 1 1 1 1 2 2 2 2 2 2 3 4 4 2 2 2 2 2 2 2 1 2 0 1
Wind_Direction
30 96 209 217 206 203 201 211 240 243 226 174 194 210 217 205 192 186 191 191 187 190 188 170 163 159 149 145 145 147 141 148 142 131 122 112 111 102 71 69 78 83 83 85
36 246 231 215 213 219 206 203 258 282 245 173 190 220 220 212 206 197 193 190 188 182 169 166 165 162 160 162 162 158 156 157 154 152 148 144 140 127 112 74 69 78 87 88
205 242 222 183 230 219 245 194 213 233 284 45 110 324 260 247 225 202 191 187 183 180 175 173 171 171 156 160 169 165 166 159 155 148 127 106 83 66 57 62 63 61 91 95
251 258 194 174 232 192 245 231 210 207 135 245 165 240 269 236 225 217 200 187 187 182 170 168 163 162 161 168 161 151 154 150 149 144 139 138 142 149 177 168 130 91 91 99
258 241 199 215 227 201 225 230 212 212 178 268 217 173 275 238 227 228 207 187 184 183 171 171 169 166 162 158 152 144 132 129 132 135 147 148 144 156 145 123 104 92 78 84
253 255 202 214 230 205 184 33 30 47 74 289 239 179 266 237 220 212 203 192 182 179 175 173 168 155 146 142 140 135 128 128 133 133 138 145 147 140 128 127 130 119 82 66
304 297 277 192 142 344 82 82 30 2 6 261 254 157 251 254 219 196 193 190 180 175 174 170 163 155 155 151 147 141 137 137 139 138 140 142 143 144 148 158 156 144 122 100
217 279 261 221 183 202 189 145 156 195 227 274 333 207 261 279 229 175 171 175 172 173 175 175 174 167 164 160 154 148 145 147 150 151 155 148 136 134 144 152 154 161 176 183
189 255 274 245 202 155 157 178 174 154 210 241 277 285 312 358 37 118 147 159 175 179 177 175 171 166 164 163 165 160 156 156 162 159 150 140 138 138 139 144 145 157 167 158
174 250 277 275 42 223 167 153 100 124 173 249 272 253 246 252 240 182 156 166 177 169 164 167 169 169 169 172 169 163 161 167 168 162 159 149 152 148 142 127 127 133 123 112
146 182 296 336 210 214 159 137 131 145 165 170 237 261 241 210 200 182 180 182 175 164 163 167 166 166 164 163 163 165 165 159 158 160 155 146 151 149 138 136 141 145 135 122
158 136 244 260 265 213 174 177 153 164 224 178 187 259 292 201 181 169 171 172 170 165 167 162 160 155 151 158 163 167 166 161 166 164 155 156 154 151 147 147 151 139 133 124
119 110 26 329 329 353 185 197 169 151 142 171 184 254 334 67 127 151 161 164 162 158 151 143 145 151 159 156 158 164 166 167 166 156 151 151 151 151 157 159 158 152 143 124
128 133 178 212 234 245 256 255 188 145 171 208 214 227 276 265 181 187 173 163 152 142 138 131 139 156 160 160 161 164 161 163 160 150 152 158 167 169 166 161 156 162 154 141
110 181 220 238 250 243 244 248 222 194 191 198 223 213 222 216 203 196 176 145 127 125 127 132 143 157 163 166 167 170 168 164 160 156 162 177 175 166 155 151 160 163 158 160
94 183 246 276 270 289 298 280 245 219 199 196 200 232 226 195 134 114 134 131 129 148 155 155 151 148 172 185 182 174 176 178 163 165 177 176 164 159 161 167 162 155 167 169
167 153 159 267 286 355 279 268 233 215 235 191 209 221 178 138 148 175 172 157 159 169 172 175 180 189 195 199 187 181 183 174 162 169 180 175 168 168 179 179 164 175 183 167
170 160 162 231 359 237 247 275 165 154 46 108 160 172 170 166 172 182 178 171 179 192 197 198 193 195 192 184 180 174 165 166 175 178 182 184 176 179 182 177 179 181 179 180
176 160 148 157 221 263 285 291 189 173 230 289 151 147 146 132 83 350 241 182 191 198 203 210 202 186 171 175 177 159 157 168 175 186 192 192 184 179 178 183 189 186 176 185
83 121 139 155 198 234 253 284 291 127 238 279 156 156 162 123 120 263 276 214 213 207 195 198 192 160 159 172 163 151 159 169 189 201 204 195 185 182 184 189 188 184 176 190
37 58 158 182 218 255 273 295 60 160 243 252 168 159 157 176 201 225 229 177 148 177 194 181 162 159 176 167 151 152 163 188 212 211 199 184 179 184 183 177 173 164 162 158
178 182 198 169 202 253 284 90 165 213 215 154 155 150 143 147 128 111 105 91 82 79 161 168 161 167 174 161 153 160 188 205 191 168 161 170 172 179 159 148 159 160 154 150
191 195 194 193 211 247 235 181 193 162 155 172 166 165 139 122 122 104 101 93 97 129 157 175 166 155 160 168 163 170 196 178 156 146 157 167 155 152 154 159 161 160 162 169
280 163 137 236 266 289 294 330 135 156 167 174 160 158 145 129 125 108 114 119 298 204 165 144 146 149 170 181 169 175 176 157 146 151 165 153 143 137 135 150 170 174 180 185
259 199 143 243 273 329 299 271 199 121 110 113 114 134 147 134 138 146 159 178 223 210 169 137 141 156 174 170 161 163 162 152 150 157 169 162 153 149 146 140 178 189 203 194
245 197 190 228 229 212 242 248 222 166 163 144 128 124 141 151 166 163 168 187 183 164 145 135 134 134 138 138 136 139 149 150 153 159 165 167 158 159 153 141 46 356 42 159
Height
1498 1504 1508 1505 1504 1504 1506 1509 1511 1507 1501 1505 1508 1509 1508 1506 1507 1508 1510 1510 1511 1513 1515 1517 1518 1520 1521 1522 1524 1524 1526 1527 1528 1528 1529 1530 1530 1531 1531 1531 1531 1531 1531 1530
1504 1506 1499 1498 1499 1501 1503 1508 1509 1505 1500 1503 1508 1509 1506 1505 1505 1505 1506 1508 1509 1511 1513 1515 1517 1518 1520 1521 1522 1524 1525 1526 1527 1528 1529 1529 1530 1531 1531 1531 1531 1531 1531 1531
1504 1500 1494 1496 1499 1502 1503 1506 1506 1506 1502 1503 1508 1513 1509 1506 1505 1505 1505 1506 1507 1509 1511 1513 1515 1517 1518 1520 1521 1523 1524 1525 1526 1527 1528 1529 1530 1530 1531 1531 1531 1531 1531 1531
1499 1495 1494 1497 1499 1499 1506 1498 1499 1501 1509 1516 1512 1526 1512 1507 1505 1504 1504 1505 1506 1508 1509 1511 1513 1515 1516 1518 1520 1521 1522 1524 1525 1526 1527 1528 1528 1529 1529 1530 1530 1530 1530 1530
1500 1494 1495 1498 1496 1496 1499 1495 1497 1500 1507 1514 1513 1522 1517 1507 1507 1503 1502 1502 1504 1505 1507 1509 1511 1513 1515 1517 1518 1520 1521 1523 1524 1525 1526 1527 1527 1528 1529 1529 1529 1529 1530 1530
1495 1491 1492 1492 1491 1492 1493 1497 1501 1507 1513 1523 1514 1520 1520 1509 1503 1500 1499 1500 1501 1503 1505 1507 1510 1512 1513 1515 1517 1518 1520 1521 1522 1523 1524 1525 1526 1526 1527 1528 1528 1528 1528 1528
1499 1493 1490 1489 1493 1493 1497 1511 1525 1526 1531 1527 1512 1516 1515 1500 1495 1495 1496 1497 1499 1501 1504 1506 1508 1510 1511 1513 1515 1517 1518 1519 1521 1522 1523 1523 1524 1525 1525 1526 1526 1527 1527 1527
1508 1506 1492 1488 1491 1496 1498 1506 1525 1533 1533 1525 1514 1517 1508 1496 1493 1493 1494 1495 1497 1499 1501 1503 1506 1508 1510 1512 1513 1515 1516 1518 1519 1520 1521 1522 1522 1523 1524 1524 1524 1525 1525 1525
1506 1505 1489 1486 1486 1490 1498 1504 1504 1518 1519 1525 1521 1513 1503 1496 1494 1493 1494 1495 1496 1498 1500 1502 1504 1506 1508 1510 1511 1513 1514 1516 1517 1518 1519 1520 1520 1521 1521 1522 1523 1523 1523 1523
1496 1502 1492 1487 1486 1487 1490 1496 1509 1517 1524 1530 1522 1517 1513 1501 1497 1495 1495 1495 1495 1497 1499 1500 1502 1504 1506 1508 1510 1511 1513 1514 1515 1516 1517 1518 1518 1519 1520 1520 1520 1521 1521 1521
1492 1501 1498 1492 1492 1493 1493 1497 1504 1513 1516 1526 1528 1520 1498 1496 1494 1494 1494 1494 1494 1495 1497 1499 1501 1503 1505 1506 1508 1509 1511 1512 1513 1514 1515 1516 1516 1517 1518 1518 1518 1518 1519 1519
1492 1500 1504 1497 1488 1484 1487 1492 1500 1513 1515 1517 1522 1517 1492 1492 1492 1492 1493 1493 1494 1495 1496 1497 1499 1501 1503 1504 1505 1507 1508 1510 1511 1512 1513 1513 1514 1515 1515 1515 1515 1516 1516 1516
1491 1500 1509 1506 1500 1491 1489 1489 1492 1500 1509 1516 1520 1513 1493 1492 1492 1492 1493 1493 1493 1494 1495 1496 1498 1499 1500 1502 1503 1505 1506 1507 1508 1509 1510 1511 1511 1512 1512 1512 1513 1513 1513 1513
1488 1498 1505 1508 1502 1494 1493 1489 1489 1497 1508 1511 1508 1503 1496 1494 1492 1492 1492 1492 1492 1493 1494 1495 1496 1497 1498 1499 1501 1502 1503 1504 1505 1506 1507 1508 1508 1509 1509 1510 1510 1510 1510 1510
1488 1496 1495 1494 1490 1489 1489 1488 1487 1491 1495 1501 1498 1497 1494 1492 1491 1491 1491 1491 1491 1493 1493 1494 1494 1495 1496 1497 1498 1500 1500 1501 1502 1503 1504 1505 1505 1506 1506 1507 1507 1507 1507 1507
1488 1493 1493 1493 1487 1487 1488 1486 1485 1486 1487 1491 1491 1493 1489 1489 1490 1490 1490 1490 1491 1491 1492 1492 1493 1493 1494 1494 1495 1497 1497 1498 1499 1500 1501 1501 1502 1502 1503 1504 1504 1504 1504 1504
1490 1493 1497 1500 1491 1488 1494 1487 1485 1485 1485 1486 1490 1489 1487 1488 1489 1489 1489 1489 1489 1490 1490 1490 1491 1491 1492 1492 1493 1494 1495 1495 1496 1497 1498 1498 1499 1499 1500 1501 1501 1501 1501 1501
1488 1492 1498 1500 1496 1501 1492 1482 1481 1483 1485 1483 1483 1484 1484 1484 1485 1486 1486 1487 1487 1488 1488 1488 1488 1489 1490 1490 1491 1491 1492 1493 1493 1494 1494 1495 1496 1496 1497 1497 1497 1498 1498 1498
1482 1488 1497 1501 1501 1497 1488 1481 1481 1483 1486 1483 1483 1483 1483 1483 1484 1485 1485 1485 1485 1485 1485 1485 1486 1486 1487 1488 1488 1489 1489 1490 1491 1491 1491 1492 1493 1493 1493 1494 1494 1494 1494 1495
1481 1485 1494 1499 1499 1500 1489 1480 1477 1480 1487 1482 1481 1482 1482 1482 1486 1485 1483 1482 1482 1482 1483 1483 1483 1484 1484 1485 1486 1486 1487 1487 1488 1488 1489 1489 1490 1490 1490 1490 1491 1491 1491 1491
1488 1490 1494 1498 1499 1492 1483 1478 1478 1489 1488 1481 1480 1480 1480 1480 1482 1482 1481 1480 1480 1480 1480 1480 1481 1481 1482 1483 1484 1484 1485 1485 1485 1486 1486 1486 1487 1487 1487 1487 1488 1488 1488 1488
1491 1494 1495 1497 1499 1494 1479 1479 1482 1482 1479 1479 1479 1479 1479 1479 1479 1479 1479 1478 1478 1477 1478 1478 1478 1479 1479 1480 1481 1481 1482 1482 1483 1483 1483 1483 1484 1484 1484 1485 1485 1485 1485 1485
1486 1486 1488 1489 1488 1480 1477 1477 1477 1477 1477 1478 1478 1478 1478 1478 1477 1477 1477 1477 1476 1476 1475 1476 1476 1476 1477 1478 1479 1479 1479 1480 1480 1480 1480 1481 1481 1481 1482 1482 1482 1482 1482 1482
1483 1480 1483 1484 1481 1478 1477 1477 1477 1477 1476 1476 1477 1477 1477 1476 1476 1476 1476 1475 1475 1474 1474 1474 1474 1474 1475 1476 1477 1477 1477 1478 1478 1478 1478 1478 1478 1479 1479 1480 1480 1480 1480 1480
1481 1480 1482 1482 1480 1478 1477 1476 1476 1476 1476 1475 1475 1475 1475 1475 1474 1474 1474 1473 1473 1473 1472 1472 1472 1472 1473 1474 1475 1475 1475 1475 1475 1476 1476 1476 1476 1476 1477 1477 1477 1478 1478 1478
1479 1479 1480 1480 1477 1477 1476 1476 1475 1475 1474 1474 1474 1474 1474 1474 1473 1473 1472 1472 1472 1472 1471 1471 1471 1471 1472 1472 1473 1473 1473 1474 1474 1474 1474 1474 1474 1474 1474 1475 1475 1476 1476 1476